TimeEST,TemperatureF,Dew PointF,Humidity,Sea Level PressureIn,VisibilityMPH,Wind Direction,Wind SpeedMPH,Gust SpeedMPH,PrecipitationIn,Events,Conditions,WindDirDegrees,DateUTC
12:53 AM,30.0,24.1,79,30.32,10.0,Calm,Calm,-,N/A,,Clear,0,2013-11-15 05:53:00
1:53 AM,30.0,24.1,79,30.32,10.0,Calm,Calm,-,N/A,,Clear,0,2013-11-15 06:53:00
2:53 AM,30.9,25.0,79,30.31,10.0,Calm,Calm,-,N/A,,Clear,0,2013-11-15 07:53:00
3:53 AM,30.9,27.0,85,30.29,10.0,Calm,Calm,-,N/A,,Clear,0,2013-11-15 08:53:00
4:53 AM,32.0,28.0,85,30.30,10.0,Calm,Calm,-,N/A,,Clear,0,2013-11-15 09:53:00
5:53 AM,32.0,28.0,85,30.32,10.0,Calm,Calm,-,N/A,,Clear,0,2013-11-15 10:53:00
6:53 AM,32.0,28.0,85,30.33,10.0,Calm,Calm,-,N/A,,Partly Cloudy,0,2013-11-15 11:53:00
7:53 AM,34.0,30.0,85,30.35,10.0,Calm,Calm,-,N/A,,Overcast,0,2013-11-15 12:53:00
8:53 AM,37.0,28.9,73,30.35,10.0,Calm,Calm,-,N/A,,Overcast,0,2013-11-15 13:53:00
9:53 AM,41.0,30.9,67,30.34,10.0,Calm,Calm,-,N/A,,Overcast,0,2013-11-15 14:53:00
10:53 AM,46.0,28.0,50,30.33,10.0,Calm,Calm,-,N/A,,Overcast,0,2013-11-15 15:53:00
11:41 AM,48.0,26.1,42,30.28,10.0,Calm,Calm,-,N/A,,Overcast,0,2013-11-15 16:41:00
11:53 AM,48.9,26.1,41,30.31,10.0,Calm,Calm,-,N/A,,Mostly Cloudy,0,2013-11-15 16:53:00
12:05 PM,48.9,26.1,41,30.27,10.0,Calm,Calm,-,N/A,,Overcast,0,2013-11-15 17:05:00
12:53 PM,50.0,27.0,41,30.28,10.0,Calm,Calm,-,N/A,,Overcast,0,2013-11-15 17:53:00
1:53 PM,48.9,30.9,50,30.26,10.0,SE,3.5,-,0.00,Rain,Light Rain,140,2013-11-15 18:53:00
2:53 PM,48.0,32.0,54,30.23,10.0,Calm,Calm,-,0.00,Rain,Light Rain,0,2013-11-15 19:53:00
3:53 PM,46.9,37.0,68,30.23,10.0,Calm,Calm,-,0.01,,Overcast,0,2013-11-15 20:53:00
4:53 PM,44.1,41.0,89,30.25,2.0,Calm,Calm,-,0.05,Rain,Rain,0,2013-11-15 21:53:00
5:07 PM,44.1,39.9,85,30.21,3.0,Calm,Calm,-,0.02,Rain,Rain,0,2013-11-15 22:07:00
5:53 PM,43.0,41.0,93,30.23,6.0,Calm,Calm,-,0.06,Rain,Light Rain,0,2013-11-15 22:53:00
6:53 PM,44.1,41.0,89,30.23,7.0,Calm,Calm,-,0.01,Rain,Light Rain,0,2013-11-15 23:53:00
7:53 PM,44.1,42.1,93,30.22,8.0,ENE,3.5,-,0.00,,Overcast,70,2013-11-16 00:53:00
8:53 PM,44.1,42.1,93,30.24,8.0,NE,3.5,-,0.01,,Overcast,50,2013-11-16 01:53:00
9:53 PM,44.1,43.0,96,30.23,8.0,Calm,Calm,-,0.00,,Overcast,0,2013-11-16 02:53:00
10:53 PM,45.0,43.0,93,30.23,6.0,Calm,Calm,-,0.00,Rain,Light Rain,0,2013-11-16 03:53:00
11:53 PM,45.0,43.0,93,30.23,5.0,Calm,Calm,-,0.00,,Overcast,0,2013-11-16 04:53:00